K5MSM Weather Reports


Display with metric or nautical units.
time (UTC)temp
F
wind
direction
speed
MPH
gust
MPH
rain 1hr
in
rain 24hr
in
rain mn
in
humidity
%
barometer
mb
20260510104520 64 270 0.0 1.0 0.00 0.00 0.00 87 1014.2
20260510103020 64 91 0.0 5.0 0.00 0.00 0.00 87 1014.0
20260510101520 64 70 0.0 3.0 0.00 0.00 0.00 85 1014.1
20260510100019 64 297 0.0 2.0 0.00 0.00 0.00 84 1014.1
20260510094538 64 35 0.0 2.0 0.00 0.00 0.00 83 1013.9
20260510093018 64 287 1.0 6.0 0.00 0.00 0.00 84 1013.2
20260510091522 63 320 0.0 3.0 0.00 0.00 0.00 85 1012.7
20260510090018 62 155 1.0 4.0 0.00 0.00 0.00 87 1013.0
20260510084516 62 248 0.0 1.0 0.00 0.00 0.00 86 1013.5
20260510083015 62 278 0.0 5.0 0.00 0.00 0.00 85 1013.9
20260510081515 63 286 1.0 7.0 0.00 0.00 0.00 83 1013.8
20260510080008 65 245 0.0 1.0 0.00 0.00 0.00 82 1013.4
20260510074504 65 352 1.0 6.0 0.00 0.00 0.00 78 1011.3
20260510073002 67 36 1.0 4.0 0.00 0.00 0.00 73 1014.6
20260510071558 68 307 0.0 5.0 0.00 0.00 0.00 72 1015.1
20260510070055 69 248 3.0 7.0 0.00 0.00 0.00 73 1015.1
20260510064554 69 266 0.0 4.0 0.00 0.00 0.00 72 1015.1
20260510063052 69 269 1.0 2.0 0.00 0.00 0.00 72 1014.8
20260510061552 69 287 0.0 1.0 0.00 0.00 0.00 70 1014.3
20260510060047 69 227 0.0 1.0 0.00 0.00 0.00 71 1013.7
20260510054545 69 179 0.0 2.0 0.00 0.00 0.00 72 1013.3
20260510053057 69 156 0.0 0.0 0.00 0.00 0.00 70 1013.0
20260510051547 69 106 0.0 0.0 0.00 0.00 0.00 70 1013.5
20260510050038 69 106 0.0 0.0 0.00 0.00 0.00 71 1013.5
20260510044537 69 60 0.0 0.0 0.00 0.00 0.00 71 1013.5
20260510043042 70 60 0.0 0.0 0.00 0.00 0.00 71 1013.5
20260510041534 70 60 0.0 0.0 0.00 0.00 0.00 69 1013.2
20260510040040 70 60 0.0 0.0 0.00 0.00 0.00 68 1012.8
20260510034533 69 60 0.0 0.0 0.00 0.00 0.00 67 1012.6
20260510033033 69 60 0.0 0.0 0.00 0.00 0.00 66 1012.3
20260510031532 68 60 0.0 0.0 0.00 0.00 0.00 65 1012.2
20260510030033 68 60 0.0 0.0 0.00 0.00 0.00 66 1011.9
20260510024531 67 60 0.0 0.0 0.00 0.00 0.00 67 1011.2
20260510023031 67 60 0.0 1.0 0.00 0.00 0.00 68 1010.7
20260510021540 68 60 0.0 0.0 0.00 0.00 0.00 65 1010.5
20260510020030 68 60 0.0 0.0 0.00 0.00 0.00 63 1010.5
20260510014532 69 60 0.0 0.0 0.00 0.00 0.00 59 1010.3
20260510013028 71 60 0.0 0.0 0.00 0.00 0.00 56 1010.3
20260510011539 73 60 0.0 0.0 0.00 0.00 0.00 51 1010.3
20260510010027 75 60 0.0 1.0 0.00 0.00 0.00 51 1010.2
20260510004531 76 60 0.0 1.0 0.00 0.00 0.00 53 1010.0
20260510003026 77 71 0.0 1.0 0.00 0.00 0.00 52 1009.8
20260510001525 78 73 0.0 1.0 0.00 0.00 0.00 48 1009.9
20260510000033 79 108 0.0 1.0 0.00 0.00 0.00 45 1010.0
20260509234521 80 71 0.0 2.0 0.00 0.00 0.00 39 1010.1
20260509233021 81 85 0.0 2.0 0.00 0.00 0.00 39 1010.2
20260509231520 83 110 0.0 4.0 0.00 0.00 0.00 40 1010.2
20260509230019 84 46 1.0 3.0 0.00 0.00 0.00 40 1010.3
20260509224519 84 48 1.0 3.0 0.00 0.00 0.00 41 1010.3
20260509223018 86 66 0.0 3.0 0.00 0.00 0.00 38 1010.3
20260509221521 86 65 0.0 4.0 0.00 0.00 0.00 39 1010.4
20260509220020 86 119 1.0 3.0 0.00 0.00 0.00 37 1010.4
20260509214514 87 105 0.0 4.0 0.00 0.00 0.00 39 1010.4
20260509213025 87 57 0.0 3.0 0.00 0.00 0.00 37 1010.6
20260509211512 87 25 1.0 7.0 0.00 0.00 0.00 35 1010.7
20260509210011 87 60 0.0 2.0 0.00 0.00 0.00 36 1010.9
20260509204508 87 87 0.0 4.0 0.00 0.00 0.00 35 1011.0
20260509203010 87 75 1.0 3.0 0.00 0.00 0.00 35 1011.2
20260509201504 87 136 0.0 3.0 0.00 0.00 0.00 40 1011.4
20260509200003 86 22 0.0 3.0 0.00 0.00 0.00 39 1011.6
20260509194502 86 116 1.0 4.0 0.00 0.00 0.00 43 1011.7
20260509193106 86 53 0.0 3.0 0.00 0.00 0.00 47 1011.8
20260509191607 84 110 1.0 5.0 0.00 0.00 0.00 49 1011.8
20260509190057 84 112 1.0 3.0 0.00 0.00 0.00 47 1012.0
20260509184600 85 51 1.0 3.0 0.00 0.00 0.00 42 1012.1
20260509183058 84 116 1.0 4.0 0.00 0.00 0.00 41 1012.2
20260509181549 84 85 1.0 4.0 0.00 0.00 0.00 53 1012.3
20260509180048 83 68 1.0 3.0 0.00 0.00 0.00 57 1012.3
20260509174600 83 131 0.0 2.0 0.00 0.00 0.00 58 1012.5
20260509173049 82 54 1.0 3.0 0.00 0.00 0.00 61 1012.6
20260509171540 81 135 0.0 3.0 0.00 0.00 0.00 64 1012.7
20260509170039 80 51 0.0 4.0 0.00 0.00 0.00 65 1012.9
20260509164536 80 130 0.0 3.0 0.00 0.00 0.00 68 1012.9
20260509163040 79 69 1.0 5.0 0.00 0.00 0.00 68 1013.0
20260509161533 79 153 1.0 2.0 0.00 0.00 0.00 69 1013.0
20260509160031 78 123 0.0 2.0 0.00 0.00 0.00 71 1013.0
20260509154528 77 148 0.0 2.0 0.00 0.00 0.00 72 1013.0
20260509153034 76 67 0.0 3.0 0.00 0.00 0.00 74 1013.0
20260509151523 75 133 0.0 2.0 0.00 0.00 0.00 73 1013.0
20260509150021 74 248 0.0 2.0 0.00 0.00 0.00 74 1013.1
20260509144519 73 224 0.0 2.0 0.00 0.00 0.00 78 1013.2
20260509143012 71 160 0.0 0.0 0.00 0.00 0.00 83 1013.2
20260509141507 68 175 0.0 0.0 0.00 0.00 0.00 87 1013.3
20260509140003 66 159 0.0 0.0 0.00 0.00 0.00 93 1013.3
20260509134600 64 166 0.0 0.0 0.00 0.00 0.00 95 1013.3
20260509133056 63 160 0.0 0.0 0.00 0.00 0.00 95 1012.9
20260509131555 62 166 0.0 0.0 0.00 0.00 0.00 95 1012.7
20260509130105 61 183 0.0 0.0 0.00 0.00 0.00 95 1012.4
20260509124555 59 183 0.0 0.0 0.00 0.00 0.00 95 1012.3
20260509123053 58 183 0.0 0.0 0.00 0.00 0.00 95 1012.3
20260509121601 57 183 0.0 0.0 0.00 0.00 0.00 94 1012.1
20260509120052 57 183 0.0 0.0 0.00 0.00 0.00 94 1012.0
20260509114558 57 183 0.0 0.0 0.00 0.00 0.00 94 1011.9
20260509113056 57 183 0.0 0.0 0.00 0.00 0.00 93 1011.8
20260509111547 57 183 0.0 0.0 0.00 0.00 0.00 93 1011.5
20260509110048 57 183 0.0 0.0 0.00 0.00 0.00 93 1011.7